GLO1212 SBFZ-SBRF

Flight info

Callsign GLO1212
Flight time 1h 1m
Altitude 35000
Route UTMAR UZ70 UGTUN
Aircraft B738/M-SDE2E3FGHIRWXY/LB1

Departure

Time 2026-05-07 12:12
Airport Pinto Martins International Airport (SBFZ)

Arrival

Time 2026-05-07 13:14
Airport Recife/Guararapes - Gilberto Freyre International Airport (SBRF)
Time Latitude Longitude Altitude Speed Heading
2026-05-07 11:54 -3.77792 -38.53963 96 ft 0 kts 203°
2026-05-07 12:00 -3.77787 -38.53961 96 ft 2 kts 201°
2026-05-07 12:00 -3.77774 -38.53953 96 ft 2 kts 226°
2026-05-07 12:00 -3.77765 -38.53941 97 ft 2 kts 243°
2026-05-07 12:00 -3.77760 -38.53927 97 ft 2 kts 260°
2026-05-07 12:01 -3.77759 -38.53912 97 ft 2 kts 278°
2026-05-07 12:01 -3.77763 -38.53897 97 ft 2 kts 296°
2026-05-07 12:01 -3.77769 -38.53888 97 ft 0 kts 309°
2026-05-07 12:01 -3.77773 -38.53883 97 ft 0 kts 311°
2026-05-07 12:08 -3.77748 -38.53914 97 ft 9 kts 307°
2026-05-07 12:08 -3.77705 -38.53989 97 ft 13 kts 291°
2026-05-07 12:08 -3.77676 -38.54084 95 ft 14 kts 285°
2026-05-07 12:09 -3.77647 -38.54188 94 ft 16 kts 285°
2026-05-07 12:09 -3.77619 -38.54287 92 ft 11 kts 285°
2026-05-07 12:09 -3.77582 -38.54355 91 ft 11 kts 326°
2026-05-07 12:09 -3.77504 -38.54376 90 ft 11 kts 353°
2026-05-07 12:10 -3.77450 -38.54372 90 ft 0 kts 11°
2026-05-07 12:10 -3.77449 -38.54372 90 ft 0 kts 11°
2026-05-07 12:11 -3.77420 -38.54366 90 ft 7 kts 14°
2026-05-07 12:11 -3.77369 -38.54344 91 ft 7 kts 49°
2026-05-07 12:11 -3.77357 -38.54298 92 ft 6 kts 90°
2026-05-07 12:11 -3.77358 -38.54285 92 ft 0 kts 100°
2026-05-07 12:12 -3.77420 -38.54036 94 ft 92 kts 105°
2026-05-07 12:12 -3.77670 -38.53077 150 ft 184 kts 105°
2026-05-07 12:12 -3.77995 -38.51746 1055 ft 211 kts 107°
2026-05-07 12:12 -3.78386 -38.50411 2113 ft 210 kts 108°
2026-05-07 12:13 -3.79064 -38.49086 2299 ft 219 kts 131°
2026-05-07 12:13 -3.80361 -38.48301 2177 ft 213 kts 159°
2026-05-07 12:13 -3.81773 -38.47829 2219 ft 218 kts 158°
2026-05-07 12:13 -3.83252 -38.47214 2647 ft 243 kts 153°
2026-05-07 12:14 -3.84782 -38.46483 3228 ft 244 kts 152°
2026-05-07 12:14 -3.86331 -38.45719 3839 ft 256 kts 152°
2026-05-07 12:14 -3.87952 -38.44926 4443 ft 261 kts 152°
2026-05-07 12:14 -3.89587 -38.44138 5041 ft 263 kts 152°
2026-05-07 12:15 -3.91247 -38.43339 5644 ft 267 kts 152°
2026-05-07 12:15 -3.92941 -38.42521 6058 ft 272 kts 152°
2026-05-07 12:15 -3.94670 -38.41705 6126 ft 273 kts 154°
2026-05-07 12:15 -3.96473 -38.41125 6262 ft 267 kts 164°
2026-05-07 12:16 -3.98318 -38.40768 6718 ft 272 kts 167°
2026-05-07 12:16 -4.00205 -38.40442 7190 ft 280 kts 167°
2026-05-07 12:16 -4.02152 -38.40091 7673 ft 281 kts 166°
2026-05-07 12:16 -4.04086 -38.39726 8151 ft 285 kts 166°
2026-05-07 12:17 -4.06051 -38.39344 8626 ft 288 kts 165°
2026-05-07 12:17 -4.08036 -38.38955 9108 ft 292 kts 166°
2026-05-07 12:17 -4.10044 -38.38565 9571 ft 294 kts 166°
2026-05-07 12:17 -4.12075 -38.38171 10041 ft 297 kts 166°
2026-05-07 12:18 -4.14098 -38.37779 10516 ft 298 kts 166°
2026-05-07 12:18 -4.16156 -38.37379 10997 ft 301 kts 166°
2026-05-07 12:18 -4.18223 -38.36978 11470 ft 301 kts 166°
2026-05-07 12:18 -4.20273 -38.36580 11944 ft 306 kts 166°
2026-05-07 12:19 -4.22455 -38.36153 12435 ft 329 kts 166°
2026-05-07 12:19 -4.24791 -38.35696 12904 ft 343 kts 166°
2026-05-07 12:19 -4.27150 -38.35241 13367 ft 348 kts 166°
2026-05-07 12:19 -4.29563 -38.34775 13851 ft 353 kts 166°
2026-05-07 12:20 -4.31991 -38.34307 14321 ft 355 kts 167°
2026-05-07 12:20 -4.34417 -38.33839 14796 ft 359 kts 167°
2026-05-07 12:20 -4.36894 -38.33359 15258 ft 362 kts 167°
2026-05-07 12:20 -4.39398 -38.32872 15728 ft 366 kts 167°
2026-05-07 12:21 -4.41935 -38.32379 16203 ft 369 kts 168°
2026-05-07 12:21 -4.44445 -38.31892 16662 ft 372 kts 168°
2026-05-07 12:21 -4.47002 -38.31396 17128 ft 376 kts 168°
2026-05-07 12:21 -4.49614 -38.30886 17606 ft 380 kts 167°
2026-05-07 12:22 -4.52194 -38.30205 18074 ft 383 kts 160°
2026-05-07 12:22 -4.54591 -38.29039 18542 ft 388 kts 146°
2026-05-07 12:22 -4.56788 -38.27439 19023 ft 390 kts 140°
2026-05-07 12:22 -4.58892 -38.25703 19490 ft 395 kts 139°
2026-05-07 12:23 -4.60989 -38.23915 19960 ft 399 kts 138°
2026-05-07 12:23 -4.63121 -38.22099 20431 ft 401 kts 139°
2026-05-07 12:23 -4.65268 -38.20286 20899 ft 407 kts 139°
2026-05-07 12:23 -4.67466 -38.18446 21378 ft 411 kts 139°
2026-05-07 12:24 -4.69675 -38.16612 21846 ft 415 kts 139°
2026-05-07 12:24 -4.71925 -38.14751 22322 ft 420 kts 139°
2026-05-07 12:24 -4.74178 -38.12893 22793 ft 423 kts 139°
2026-05-07 12:24 -4.76469 -38.11007 23270 ft 423 kts 140°
2026-05-07 12:25 -4.78740 -38.09139 23742 ft 426 kts 140°
2026-05-07 12:25 -4.81048 -38.07242 24222 ft 427 kts 140°
2026-05-07 12:25 -4.83348 -38.05351 24702 ft 427 kts 140°
2026-05-07 12:25 -4.85661 -38.03447 25185 ft 430 kts 141°
2026-05-07 12:26 -4.87963 -38.01554 25660 ft 433 kts 141°
2026-05-07 12:26 -4.90312 -37.99622 26141 ft 434 kts 141°
2026-05-07 12:26 -4.92664 -37.97687 26623 ft 434 kts 141°
2026-05-07 12:26 -4.95025 -37.95744 27106 ft 437 kts 142°
2026-05-07 12:27 -4.97384 -37.93805 27585 ft 440 kts 142°
2026-05-07 12:27 -4.99737 -37.91869 28061 ft 440 kts 142°
2026-05-07 12:27 -5.02099 -37.89924 28534 ft 441 kts 142°
2026-05-07 12:27 -5.04501 -37.87946 29044 ft 443 kts 142°
2026-05-07 12:28 -5.06875 -37.85993 29546 ft 445 kts 142°
2026-05-07 12:28 -5.09273 -37.84018 30059 ft 447 kts 142°
2026-05-07 12:28 -5.11706 -37.82013 30575 ft 449 kts 142°
2026-05-07 12:28 -5.14099 -37.80042 31083 ft 450 kts 142°
2026-05-07 12:29 -5.16536 -37.78038 31601 ft 450 kts 141°
2026-05-07 12:29 -5.18953 -37.76048 32116 ft 451 kts 141°
2026-05-07 12:29 -5.21381 -37.74048 32638 ft 451 kts 141°
2026-05-07 12:29 -5.23804 -37.72051 33223 ft 451 kts 141°
2026-05-07 12:30 -5.26220 -37.70061 33810 ft 450 kts 141°
2026-05-07 12:30 -5.28657 -37.68052 34408 ft 449 kts 141°
2026-05-07 12:30 -5.31073 -37.66061 34975 ft 448 kts 141°
2026-05-07 12:30 -5.33520 -37.64045 35177 ft 455 kts 141°
2026-05-07 12:31 -5.36014 -37.61989 35180 ft 466 kts 141°
2026-05-07 12:31 -5.38560 -37.59891 35184 ft 477 kts 141°
2026-05-07 12:31 -5.41175 -37.57737 35185 ft 487 kts 141°
2026-05-07 12:32 -5.46522 -37.53330 35203 ft 501 kts 141°
2026-05-07 12:32 -5.49165 -37.51149 35239 ft 489 kts 141°
2026-05-07 12:32 -5.51798 -37.48975 34977 ft 478 kts 141°
2026-05-07 12:33 -5.59589 -37.42546 35003 ft 493 kts 141°
2026-05-07 12:33 -5.64928 -37.38140 35001 ft 491 kts 141°
2026-05-07 12:34 -5.70203 -37.33786 35001 ft 491 kts 141°
2026-05-07 12:34 -5.75484 -37.29425 34997 ft 491 kts 141°
2026-05-07 12:35 -5.80728 -37.25093 34996 ft 469 kts 141°
2026-05-07 12:35 -5.83214 -37.23037 35000 ft 454 kts 141°
2026-05-07 12:35 -5.85613 -37.21053 35006 ft 449 kts 141°
2026-05-07 12:36 -5.90541 -37.16981 35010 ft 461 kts 141°
2026-05-07 12:36 -5.95519 -37.12867 35008 ft 460 kts 141°
2026-05-07 12:37 -6.00474 -37.08771 35008 ft 460 kts 141°
2026-05-07 12:37 -6.05415 -37.04683 35010 ft 460 kts 141°
2026-05-07 12:38 -6.10382 -37.00575 35016 ft 460 kts 141°
2026-05-07 12:38 -6.15269 -36.96530 35022 ft 460 kts 141°
2026-05-07 12:39 -6.20227 -36.92427 35032 ft 461 kts 141°
2026-05-07 12:39 -6.25186 -36.88322 35041 ft 461 kts 141°
2026-05-07 12:40 -6.30123 -36.84235 35042 ft 461 kts 141°
2026-05-07 12:40 -6.35135 -36.80082 35038 ft 462 kts 141°
2026-05-07 12:41 -6.40076 -36.75988 35036 ft 461 kts 141°
2026-05-07 12:41 -6.45049 -36.71866 35038 ft 462 kts 141°
2026-05-07 12:42 -6.50035 -36.67733 35043 ft 462 kts 141°
2026-05-07 12:42 -6.55001 -36.63618 35050 ft 462 kts 141°
2026-05-07 12:43 -6.60027 -36.59457 35058 ft 462 kts 141°
2026-05-07 12:43 -6.65002 -36.55336 35062 ft 463 kts 141°
2026-05-07 12:44 -6.70029 -36.51164 35065 ft 462 kts 141°
2026-05-07 12:44 -6.75009 -36.47027 35065 ft 463 kts 141°
2026-05-07 12:45 -6.79987 -36.42892 35064 ft 463 kts 141°
2026-05-07 12:45 -6.84971 -36.38752 35067 ft 463 kts 141°
2026-05-07 12:46 -6.89935 -36.34625 35073 ft 463 kts 141°
2026-05-07 12:46 -6.94887 -36.30466 35070 ft 463 kts 141°
2026-05-07 12:47 -6.99840 -36.26273 35073 ft 463 kts 141°
2026-05-07 12:47 -7.04783 -36.22087 34872 ft 467 kts 141°
2026-05-07 12:48 -7.07268 -36.19984 34226 ft 470 kts 141°
2026-05-07 12:48 -7.09787 -36.17853 33494 ft 468 kts 141°
2026-05-07 12:48 -7.12283 -36.15741 32768 ft 466 kts 141°
2026-05-07 12:48 -7.14782 -36.13628 31971 ft 467 kts 141°
2026-05-07 12:49 -7.17280 -36.11515 31189 ft 467 kts 141°
2026-05-07 12:49 -7.19746 -36.09430 30419 ft 467 kts 142°
2026-05-07 12:49 -7.22235 -36.07325 29642 ft 467 kts 142°
2026-05-07 12:49 -7.24731 -36.05214 28864 ft 466 kts 142°
2026-05-07 12:50 -7.27211 -36.03116 28124 ft 464 kts 142°
2026-05-07 12:50 -7.29694 -36.01015 27409 ft 463 kts 142°
2026-05-07 12:50 -7.32174 -35.98916 26696 ft 461 kts 141°
2026-05-07 12:50 -7.34616 -35.96849 25990 ft 460 kts 141°
2026-05-07 12:51 -7.37099 -35.94747 25273 ft 458 kts 141°
2026-05-07 12:51 -7.39513 -35.92705 24574 ft 456 kts 140°
2026-05-07 12:51 -7.41966 -35.90628 23858 ft 455 kts 140°
2026-05-07 12:51 -7.44362 -35.88600 23156 ft 453 kts 139°
2026-05-07 12:52 -7.46787 -35.86548 22441 ft 451 kts 139°
2026-05-07 12:52 -7.49187 -35.84515 21733 ft 449 kts 139°
2026-05-07 12:52 -7.51567 -35.82498 21020 ft 447 kts 139°
2026-05-07 12:52 -7.53961 -35.80470 20297 ft 443 kts 139°
2026-05-07 12:53 -7.56310 -35.78479 19586 ft 440 kts 139°
2026-05-07 12:53 -7.58634 -35.76510 18871 ft 436 kts 139°
2026-05-07 12:53 -7.60945 -35.74549 18148 ft 431 kts 139°
2026-05-07 12:53 -7.63249 -35.72593 17434 ft 426 kts 140°
2026-05-07 12:54 -7.65495 -35.70687 16728 ft 421 kts 140°
2026-05-07 12:54 -7.67745 -35.68776 16017 ft 416 kts 140°
2026-05-07 12:54 -7.69868 -35.66823 15317 ft 411 kts 134°
2026-05-07 12:54 -7.71600 -35.64591 14608 ft 406 kts 120°
2026-05-07 12:55 -7.72542 -35.61946 13875 ft 399 kts 99°
2026-05-07 12:55 -7.72581 -35.59217 13189 ft 383 kts 87°
2026-05-07 12:55 -7.72327 -35.56600 12470 ft 369 kts 84°
2026-05-07 12:55 -7.72022 -35.54076 11748 ft 356 kts 84°
2026-05-07 12:56 -7.71732 -35.51625 11024 ft 345 kts 84°
2026-05-07 12:56 -7.71479 -35.49232 10374 ft 342 kts 85°
2026-05-07 12:56 -7.71259 -35.46892 10080 ft 329 kts 85°
2026-05-07 12:56 -7.71059 -35.44644 10029 ft 310 kts 86°
2026-05-07 12:57 -7.70877 -35.42522 10023 ft 292 kts 86°
2026-05-07 12:57 -7.70707 -35.40524 9952 ft 285 kts 86°
2026-05-07 12:57 -7.70537 -35.38517 9657 ft 286 kts 86°
2026-05-07 12:57 -7.70367 -35.36534 9349 ft 282 kts 86°
2026-05-07 12:58 -7.70196 -35.34562 9031 ft 276 kts 86°
2026-05-07 12:58 -7.70030 -35.32657 8717 ft 272 kts 86°
2026-05-07 12:58 -7.69866 -35.30769 8417 ft 268 kts 86°
2026-05-07 12:58 -7.69703 -35.28894 8109 ft 264 kts 86°
2026-05-07 12:59 -7.69543 -35.27060 7811 ft 260 kts 86°
2026-05-07 12:59 -7.69387 -35.25267 7501 ft 257 kts 86°
2026-05-07 12:59 -7.69232 -35.23486 7180 ft 254 kts 86°
2026-05-07 12:59 -7.69078 -35.21720 6881 ft 249 kts 87°
2026-05-07 13:00 -7.68927 -35.19987 6576 ft 242 kts 87°
2026-05-07 13:00 -7.68780 -35.18309 6261 ft 237 kts 87°
2026-05-07 13:00 -7.68638 -35.16672 5956 ft 231 kts 87°
2026-05-07 13:00 -7.68499 -35.15082 5654 ft 227 kts 87°
2026-05-07 13:01 -7.68360 -35.13482 5350 ft 228 kts 87°
2026-05-07 13:01 -7.68222 -35.11893 5041 ft 228 kts 87°
2026-05-07 13:01 -7.68082 -35.10310 4728 ft 226 kts 87°
2026-05-07 13:01 -7.68026 -35.08743 4416 ft 224 kts 96°
2026-05-07 13:02 -7.68486 -35.07289 4102 ft 220 kts 124°
2026-05-07 13:02 -7.69672 -35.06359 3792 ft 218 kts 155°
2026-05-07 13:02 -7.71095 -35.05905 3492 ft 210 kts 161°
2026-05-07 13:02 -7.72499 -35.05486 3174 ft 203 kts 160°
2026-05-07 13:03 -7.73818 -35.05078 2995 ft 193 kts 160°
2026-05-07 13:03 -7.75100 -35.04663 2996 ft 195 kts 159°
2026-05-07 13:03 -7.76423 -35.04225 2997 ft 200 kts 159°
2026-05-07 13:03 -7.77741 -35.03796 2994 ft 192 kts 160°
2026-05-07 13:04 -7.78962 -35.03405 2989 ft 173 kts 159°
2026-05-07 13:04 -7.80043 -35.03057 3024 ft 150 kts 159°
2026-05-07 13:04 -7.81009 -35.02742 2992 ft 143 kts 158°
2026-05-07 13:04 -7.81960 -35.02429 3031 ft 140 kts 158°
2026-05-07 13:05 -7.82934 -35.02108 2987 ft 149 kts 158°
2026-05-07 13:05 -7.83919 -35.01792 2804 ft 147 kts 159°
2026-05-07 13:05 -7.84877 -35.01486 2681 ft 143 kts 159°
2026-05-07 13:05 -7.85828 -35.01173 2610 ft 144 kts 159°
2026-05-07 13:06 -7.86793 -35.00851 2525 ft 146 kts 158°
2026-05-07 13:06 -7.87751 -35.00536 2397 ft 141 kts 158°
2026-05-07 13:06 -7.88668 -35.00233 2267 ft 136 kts 158°
2026-05-07 13:06 -7.89576 -34.99934 2149 ft 136 kts 159°
2026-05-07 13:07 -7.90474 -34.99639 2026 ft 134 kts 158°
2026-05-07 13:07 -7.91374 -34.99341 1911 ft 134 kts 158°
2026-05-07 13:07 -7.92263 -34.99050 1789 ft 133 kts 158°
2026-05-07 13:07 -7.93142 -34.98761 1697 ft 130 kts 159°
2026-05-07 13:08 -7.94010 -34.98476 1704 ft 133 kts 158°
2026-05-07 13:08 -7.94907 -34.98179 1693 ft 133 kts 159°
2026-05-07 13:08 -7.95796 -34.97895 1695 ft 134 kts 158°
2026-05-07 13:08 -7.96678 -34.97596 1693 ft 131 kts 158°
2026-05-07 13:09 -7.97554 -34.97301 1706 ft 133 kts 158°
2026-05-07 13:09 -7.98436 -34.97006 1692 ft 132 kts 158°
2026-05-07 13:09 -7.99318 -34.96712 1700 ft 133 kts 158°
2026-05-07 13:09 -8.00204 -34.96417 1696 ft 133 kts 158°
2026-05-07 13:10 -8.01096 -34.96130 1695 ft 133 kts 160°
2026-05-07 13:10 -8.01988 -34.95842 1698 ft 133 kts 158°
2026-05-07 13:10 -8.02865 -34.95534 1694 ft 133 kts 158°
2026-05-07 13:10 -8.03763 -34.95231 1587 ft 137 kts 158°
2026-05-07 13:11 -8.04672 -34.94933 1372 ft 133 kts 159°
2026-05-07 13:11 -8.05541 -34.94644 1231 ft 132 kts 159°
2026-05-07 13:11 -8.06424 -34.94349 1076 ft 133 kts 161°
2026-05-07 13:11 -8.07329 -34.94069 909 ft 134 kts 161°
2026-05-07 13:12 -8.08209 -34.93790 725 ft 131 kts 161°
2026-05-07 13:12 -8.09071 -34.93505 584 ft 133 kts 161°
2026-05-07 13:12 -8.09943 -34.93199 426 ft 128 kts 160°
2026-05-07 13:12 -8.10802 -34.92930 284 ft 134 kts 163°
2026-05-07 13:13 -8.11662 -34.92643 81 ft 127 kts 160°
2026-05-07 13:13 -8.12475 -34.92387 44 ft 112 kts 162°
2026-05-07 13:13 -8.13105 -34.92164 44 ft 74 kts 165°
2026-05-07 13:13 -8.13506 -34.92030 43 ft 54 kts 165°
2026-05-07 13:14 -8.13813 -34.91934 43 ft 35 kts 160°
2026-05-07 13:14 -8.13918 -34.91836 43 ft 22 kts 44°
2026-05-07 13:14 -8.13760 -34.91804 43 ft 21 kts 354°
2026-05-07 13:14 -8.13614 -34.91844 43 ft 21 kts 342°
2026-05-07 13:15 -8.13482 -34.91887 43 ft 17 kts 342°
2026-05-07 13:15 -8.13396 -34.91907 43 ft 9 kts 29°
2026-05-07 13:15 -8.13356 -34.91866 43 ft 5 kts 59°
2026-05-07 13:15 -8.13349 -34.91852 43 ft 0 kts 71°